Location: Albany
(35.0000°S, 118.0000°E)
Time: 03:01:18
(UTC-05:00)

ERS-1 Rocket - Visible Passes

Search period start: 24 November 2014 00:00
Search period end: 04 December 2014 00:00
Orbit: 755 x 759 km, 98.7° (Epoch: 23 November)

Date Brightness Start Highest point End Pass type
(mag) Time Alt. Az. Time Alt. Az. Time Alt. Az.
24 Nov 3.1 07:05:15 10° S 07:10:21 81° WSW 07:15:24 10° NNW visible
25 Nov 3.5 06:26:26 10° SSE 06:31:12 40° E 06:35:55 10° NNE visible
25 Nov 5.5 08:05:57 10° SSW 08:09:40 21° WSW 08:13:22 10° WNW visible
26 Nov 3.9 07:25:56 10° S 07:30:51 50° WSW 07:35:43 10° NNW visible
27 Nov 3.0 06:46:45 10° SSE 06:51:49 65° ENE 06:56:50 10° N visible
27 Nov 5.9 08:27:40 10° SW 08:29:59 13° WSW 08:32:18 10° W visible
28 Nov 4.8 07:46:50 10° S 07:51:17 31° WSW 07:55:42 10° NW visible
29 Nov 3.2 07:07:16 10° S 07:12:22 78° WSW 07:17:25 10° NNW visible
30 Nov 3.4 06:28:25 10° SSE 06:33:13 41° E 06:37:58 10° N visible
30 Nov 5.5 08:08:01 10° SSW 08:11:40 20° WSW 08:15:18 10° WNW visible
01 Dec 4.0 07:27:58 10° S 07:32:51 48° WSW 07:37:42 10° NW visible
02 Dec 3.0 06:48:44 10° SSE 06:53:49 68° ENE 06:58:50 10° N visible
02 Dec 5.9 08:29:47 10° SW 08:31:58 13° WSW 08:34:09 10° W visible
03 Dec 4.9 07:48:52 10° S 07:53:17 30° WSW 07:57:39 10° NW visible
